Simultaneous Nadir Overpasses (SNOs) Predictions

Prediction of SNOs between NPP and TERRA Satellite Orbit:

Table of predicted SNOs for the next 14.0 days since TLE Epoch: 1/26/2014
Index Date (NPP) Time (NPP) Lat,Lon (NPP) SZA (NPP ) Date (TERRA) Time (TERRA) Lat,Lon (TERRA) SZA (TERRA ) Distance(km) Time Diff (sec)
1 01/26/2014 16:43:53 -68.66, 107.83 92.79 01/26/2014 16:44:48 -68.66, 107.80 92.80 1.34 55
2 01/26/2014 17:34:38 68.57, -84.74 87.11 01/26/2014 17:34:15 68.55, -84.69 87.09 2.99 23
3 01/26/2014 18:25:06 -67.75, 83.63 93.75 01/26/2014 18:23:57 -67.77, 82.02 93.68 67.83 69
4 01/29/2014 08:10:24 69.48, 55.14 87.38 01/29/2014 08:11:32 69.40, 57.00 87.24 73.52 68
5 01/29/2014 09:00:51 -68.61,-136.33 93.55 01/29/2014 09:01:14 -68.63,-136.35 93.53 2.25 23
6 01/29/2014 09:51:35 68.52, 31.09 86.36 01/29/2014 09:50:40 68.51, 31.15 86.35 2.79 55
7 02/01/2014 00:27:07 68.69, 172.01 85.82 02/01/2014 00:28:09 68.67, 171.97 85.79 2.80 62
8 02/01/2014 01:17:48 -68.56, -20.50 94.33 02/01/2014 01:17:39 -68.57, -20.52 94.32 1.51 9
9 02/01/2014 02:08:24 68.00, 147.54 85.08 02/01/2014 02:07:13 68.06, 146.50 85.18 43.66 71
10 02/03/2014 16:44:05 68.66, -72.18 85.01 02/03/2014 16:44:34 68.65, -72.16 85.00 0.90 29
11 02/03/2014 17:34:46 -68.52, 95.32 95.15 02/03/2014 17:34:05 -68.50, 95.28 95.16 3.08 41
12 02/06/2014 08:10:20 -68.81,-123.91 95.64 02/06/2014 08:11:31 -68.80,-123.73 95.66 7.58 71
13 02/06/2014 09:01:03 68.63, 43.63
